Total_Precipitation_Accumulation
1.47 1.50 1.42 1.63 1.74 1.81 1.88 1.89 1.81 1.69 1.66 1.48 1.47 1.50 1.55 1.43 1.57 1.74 2.25 2.75 3.39 4.26 4.45 4.07 3.77 3.68 3.41 3.29 3.47 3.47 3.47 3.52 3.52 3.49 3.48 3.84 3.96 3.54 3.46 3.44 3.46 3.89 4.34
1.31 1.52 1.42 1.43 1.56 1.77 1.91 1.90 1.84 1.90 1.86 1.65 1.63 1.68 1.66 1.60 1.63 1.70 1.95 2.06 2.31 3.04 3.81 4.21 4.32 4.14 3.74 3.52 3.49 3.52 3.67 3.65 3.53 3.38 3.34 3.54 3.74 3.44 3.40 3.50 3.49 3.81 4.18
1.23 1.48 1.41 1.32 1.34 1.51 1.71 1.95 2.03 2.04 1.83 1.75 1.77 1.76 1.65 1.63 1.64 1.83 1.90 1.98 1.93 2.13 2.75 3.28 3.83 4.02 4.08 3.92 3.59 3.41 3.63 3.62 3.51 3.34 3.29 3.31 3.56 3.51 3.49 3.56 3.49 3.68 3.87
1.02 1.27 1.37 1.29 1.29 1.49 1.75 2.03 2.24 2.29 2.09 2.04 2.08 1.98 1.76 1.71 1.66 1.79 1.86 1.97 2.10 1.90 1.95 2.16 2.65 3.28 3.81 3.94 3.93 3.77 3.77 3.63 3.37 3.23 3.04 2.99 3.26 3.45 3.55 3.53 3.41 3.54 3.66
0.96 1.21 1.45 1.49 1.48 1.67 1.82 1.82 2.09 2.27 2.36 2.26 2.09 1.95 1.90 1.89 1.87 1.81 1.95 1.96 2.05 2.00 1.83 1.59 1.70 2.22 2.91 3.41 3.71 3.84 4.05 3.88 3.48 3.27 2.91 2.73 2.89 3.18 3.53 3.26 3.19 3.23 3.46
1.18 1.40 1.66 1.69 1.76 1.86 1.98 2.20 2.49 2.50 2.43 2.46 2.17 1.91 1.81 1.85 1.94 2.04 2.03 2.03 2.09 1.92 1.75 1.59 1.54 1.54 2.15 2.78 3.16 3.59 3.90 3.92 3.66 3.54 3.16 2.73 2.71 2.97 3.37 3.17 3.07 3.13 3.35
1.37 1.60 1.80 2.02 2.15 2.06 2.10 2.38 2.69 2.79 2.56 2.41 2.51 2.37 2.18 1.98 1.98 1.97 1.97 2.05 2.10 2.03 1.92 1.86 1.78 1.68 1.82 2.14 2.45 2.99 3.48 3.73 3.77 3.75 3.50 3.08 2.86 2.89 3.05 2.91 2.84 3.09 3.42
1.47 1.50 1.78 1.96 2.05 2.19 2.23 2.34 2.67 3.01 2.75 2.46 2.74 3.19 2.96 2.72 2.18 1.84 1.99 2.04 2.14 2.15 2.08 1.94 1.95 1.87 1.88 2.06 1.86 2.04 2.65 3.28 3.73 3.80 3.62 3.36 3.15 2.92 2.96 2.85 2.72 2.82 3.08
1.83 1.79 1.84 1.98 2.06 2.26 2.42 2.44 2.53 2.91 2.94 2.66 2.63 3.28 3.34 3.19 2.91 2.33 1.97 2.03 2.22 2.31 2.33 2.23 2.08 2.03 1.92 2.04 1.87 1.61 1.90 2.36 3.07 3.52 3.74 3.58 3.37 3.07 2.98 2.91 2.84 2.88 2.91
2.15 2.16 2.18 2.28 2.22 2.21 2.32 2.29 2.29 2.56 2.92 2.95 2.72 2.56 2.54 2.73 3.18 2.93 2.32 2.14 2.18 2.21 2.36 2.22 2.21 2.24 2.16 2.09 1.96 1.63 1.47 1.67 2.39 3.21 3.72 3.64 3.46 3.27 3.09 3.01 2.87 2.80 2.80
2.80 2.76 2.67 2.50 2.30 2.24 2.31 2.35 2.37 2.49 2.62 2.78 2.75 2.56 2.48 2.46 2.43 2.76 2.76 2.48 2.25 2.14 2.23 2.27 2.29 2.29 2.27 2.21 2.12 1.75 1.39 1.29 1.67 2.55 3.26 3.50 3.49 3.37 3.27 3.17 2.97 2.75 2.58
2.81 2.74 2.55 2.26 2.10 2.05 2.14 2.31 2.34 2.42 2.44 2.51 2.47 2.31 2.30 2.34 2.40 2.62 2.64 2.58 2.53 2.21 2.04 2.07 2.13 2.18 2.07 2.07 1.94 1.98 1.59 1.31 1.34 1.80 2.38 2.88 3.21 3.44 3.41 3.46 3.26 2.96 2.68
2.16 2.17 2.15 2.10 2.01 1.91 1.98 2.21 2.31 2.37 2.38 2.37 2.29 2.19 2.20 2.09 2.19 2.52 2.74 2.64 2.49 2.21 2.05 1.90 1.93 1.95 1.79 1.86 1.95 2.12 1.81 1.54 1.40 1.48 1.76 2.12 2.45 2.87 3.29 3.60 3.71 3.56 3.36
1.94 1.96 1.97 2.00 1.95 1.90 1.91 2.03 2.16 2.27 2.28 2.22 2.15 2.27 2.28 2.07 2.15 2.23 2.42 2.70 2.58 2.36 2.23 1.96 1.81 1.68 1.69 1.71 1.94 2.16 1.63 1.58 1.45 1.35 1.37 1.58 1.88 2.16 2.53 3.06 3.49 3.62 3.61
1.55 1.67 1.78 1.86 1.81 1.78 1.79 1.93 2.06 2.08 2.16 2.24 2.26 2.28 2.30 2.22 2.23 2.24 2.42 2.63 2.73 2.57 2.42 2.12 1.86 1.64 1.67 1.73 1.99 1.83 1.55 1.57 1.48 1.38 1.36 1.38 1.52 1.78 2.01 2.20 2.45 2.59 2.73
1.42 1.45 1.43 1.48 1.48 1.51 1.51 1.60 1.76 1.83 1.85 1.95 2.01 2.07 2.09 2.07 2.19 2.19 2.30 2.50 2.58 2.57 2.49 2.20 1.94 1.79 1.82 1.74 1.91 1.71 1.64 1.80 1.63 1.44 1.37 1.37 1.40 1.52 1.62 1.71 1.81 1.86 1.86
1.13 1.15 1.07 1.11 1.23 1.26 1.19 1.27 1.36 1.43 1.53 1.63 1.65 1.71 1.78 1.79 1.97 2.01 2.13 2.30 2.44 2.45 2.27 2.09 1.94 1.89 1.90 1.94 1.90 1.73 1.63 1.64 1.63 1.50 1.36 1.33 1.37 1.42 1.47 1.59 1.66 1.64 1.62
0.87 0.88 0.84 0.84 0.96 1.10 1.14 1.21 1.26 1.23 1.31 1.44 1.54 1.57 1.54 1.57 1.70 1.78 1.89 2.01 2.21 2.33 2.25 2.13 1.99 1.84 1.73 1.79 1.92 1.90 1.83 1.73 1.74 1.79 1.67 1.55 1.54 1.48 1.41 1.52 1.64 1.60 1.54
0.84 0.82 0.76 0.80 0.85 0.94 1.10 1.17 1.17 1.15 1.13 1.15 1.25 1.29 1.32 1.42 1.58 1.63 1.67 1.82 2.01 2.12 2.23 2.15 2.04 1.91 1.75 1.70 1.84 1.79 1.80 2.01 1.91 1.97 2.11 1.97 1.78 1.66 1.52 1.51 1.59 1.57 1.50
0.88 0.86 0.77 0.76 0.85 0.95 1.04 1.16 1.16 1.08 1.05 1.06 1.13 1.13 1.09 1.15 1.29 1.46 1.55 1.75 1.95 2.14 2.25 2.22 2.18 2.06 1.95 1.82 1.85 1.96 1.98 2.04 2.07 1.86 1.93 2.02 2.04 1.93 1.78 1.61 1.59 1.62 1.64
0.88 0.85 0.83 0.85 0.91 0.93 0.95 1.12 1.14 1.07 1.06 1.02 1.03 1.07 1.06 1.09 1.15 1.23 1.24 1.44 1.68 1.98 2.15 2.24 2.23 2.18 2.07 1.96 1.83 1.99 2.05 2.15 2.24 2.20 2.11 1.99 2.02 1.88 1.81 1.80 1.70 1.68 1.74
0.91 0.88 0.86 0.89 0.87 0.80 1.03 1.13 1.13 1.12 1.14 1.15 1.09 1.06 1.03 1.03 1.15 1.17 1.15 1.20 1.37 1.58 1.79 1.89 1.93 1.94 1.96 2.01 2.10 2.12 2.08 2.11 2.17 2.18 2.09 2.17 2.19 2.14 1.91 1.79 1.84 1.79 1.80
0.86 0.86 0.85 0.85 0.81 0.80 0.88 0.88 0.97 1.05 1.18 1.19 1.09 1.14 1.15 1.04 1.10 1.13 1.22 1.18 1.14 1.20 1.41 1.62 1.67 1.67 1.75 1.81 2.07 2.10 2.08 2.09 1.98 2.02 1.96 2.10 2.08 2.08 1.96 1.95 2.06 1.87 1.82
0.77 0.81 0.89 0.90 0.80 0.73 0.78 0.75 0.82 0.91 1.06 1.11 1.06 1.10 1.30 1.30 1.20 1.21 1.28 1.33 1.20 1.05 1.10 1.21 1.39 1.53 1.60 1.78 2.10 2.33 2.27 2.02 1.91 1.92 1.86 2.00 1.98 1.96 1.90 1.84 1.97 1.91 1.81
0.66 0.67 0.72 0.80 0.78 0.76 0.78 0.77 0.80 0.83 0.91 0.92 0.96 1.07 1.19 1.28 1.27 1.30 1.23 1.26 1.29 1.15 1.13 1.23 1.26 1.36 1.55 1.72 1.99 2.30 2.37 2.23 2.02 1.90 1.76 1.79 1.88 1.97 2.03 1.90 1.84 1.93 1.89
0.65 0.67 0.68 0.66 0.65 0.68 0.76 0.76 0.83 0.82 0.83 0.77 0.81 1.00 1.22 1.18 1.20 1.28 1.25 1.31 1.39 1.21 1.14 1.25 1.25 1.29 1.34 1.60 2.00 2.19 2.34 2.30 2.14 2.06 1.86 1.83 1.90 2.02 2.33 2.22 1.95 1.86 1.86